Location: Blandford
(50.8667°N, 2.1667°W)
Time: 18:55:37
(UTC+00:00)

COSMOS 2406 - Pass Details

Date: 09 April 2020
Orbit: 842 x 865 km, 71.0° (Epoch: 24 May)

Event Time Altitude Azimuth Distance (km) Brightness Sun altitude
Exits shadow 22:36:55 - 238° (WSW) 2,520 5.6 -27.8°
Reaches altitude 10° 22:37:04 10° 239° (WSW) 2,470 5.6 -27.8°
Maximum altitude 22:42:27 43° 310° (NW) 1,189 4.3 -28.1°
Drops below altitude 10° 22:47:53 10° 21° (NNE) 2,497 6.2 -28.5°
Sets 22:50:30 0° 29° (NNE) 3,441 6.9 -28.6°
